Regional Weather Roundup
Issued by NWS

Home | Current Version | Previous Version | Text Only | Print | Product List | Glossary Off
Versions: 1 2 3 4 5 6 7 8 9 10 11 12 13 14 15 16 17 18 19 20 21 22 23 24 25 26 27 28 29 30 31 32 33 34 35 36 37 38 39 40 41 42 43 44 45 46 47 48 49 50

000
ASUS43 KOAX 261202
RWRNE

WEATHER ROUNDUP FOR NEBRASKA
NATIONAL WEATHER SERVICE OMAHA NE
700 AM CDT FRI MAY 26 2017

NOTES: SATELLITE DATA IS BEING USED TO AUGMENT CLOUD COVER ABOVE
       12000 FEET.
       "FAIR" INDICATES FEW OR NO CLOUDS BELOW 12,000 FEET WITH NO
       SIGNIFICANT WEATHER AND/OR OBSTRUCTIONS TO VISIBILITY.

  * THESE STATIONS DO NOT REPORT WEATHER SUCH AS RAIN...SNOW OR FOG.

NEZ001>004-019>022-054>056-261300-
NEBRASKA PANHANDLE

CITY           SKY/WX    TMP DP  RH WIND       PRES   REMARKS
SCOTTSBLUFF    CLEAR     40  36  86 NW7       29.95R
6HR MIN TEMP:  39; 6HR MAX TEMP:  52;

ALLIANCE       CLEAR     36  34  92 W5        29.92R WCI  32
6HR MIN TEMP:  33; 6HR MAX TEMP:  49;

CHADRON        PTCLDY    46  38  73 W14       29.92R
6HR MIN TEMP:  43; 6HR MAX TEMP:  48;

GORDON         FAIR      42  38  84 W6        29.90S
6HR MIN TEMP:  39; 6HR MAX TEMP:  51;

KIMBALL        CLEAR     38  35  89 NW5       29.97S WCI  34
SIDNEY         PTCLDY    42  40  92 NW8       29.96R
6HR MIN TEMP:  42; 6HR MAX TEMP:  50;

$$

NEZ057>060-069>072-079>082-261300-
SOUTHWEST NEBRASKA

CITY           SKY/WX    TMP DP  RH WIND       PRES   REMARKS
NORTH PLATTE   CLOUDY    52  44  74 N7        29.89R
6HR MIN TEMP:  51; 6HR MAX TEMP:  58;

IMPERIAL       CLOUDY    50  44  80 N9        29.92R
6HR MIN TEMP:  50; 6HR MAX TEMP:  59;

LEXINGTON      CLEAR     55  44  67 N16       29.84R
MCCOOK         PTCLDY    56  47  71 N8        29.88R
6HR MIN TEMP:  55; 6HR MAX TEMP:  59;

OGALLALA       CLOUDY    49  44  85 SW3       29.94R
$$

NEZ005>010-023>029-035>040-094-261300-
NORTH CENTRAL NEBRASKA

CITY           SKY/WX    TMP DP  RH WIND       PRES   REMARKS
VALENTINE      CLEAR     44  38  79 SW5       29.87R
6HR MIN TEMP:  44; 6HR MAX TEMP:  60;

AINSWORTH      PTCLDY    49  42  78 NW5       29.87R
BROKEN BOW     CLEAR     53  44  71 N18       29.84R
6HR MIN TEMP:  53; 6HR MAX TEMP:  63;

O`NEILL        CLOUDY    54  43  67 NW9       29.84R
ORD            MOCLDY    54  42  64 N14       29.82R
6HR MIN TEMP:  54; 6HR MAX TEMP:  60;

THEDFORD       CLOUDY    49  43  78 NW5       29.90R
$$

NEZ041-046>049-061>064-073>077-083>087-261300-
SOUTH CENTRAL NEBRASKA

CITY           SKY/WX    TMP DP  RH WIND       PRES   REMARKS
GRAND ISLAND   CLOUDY    57  47  69 N17       29.79R
6HR MIN TEMP:  57; 6HR MAX TEMP:  63; 6HR PCP: TRACE;

AURORA         CLOUDY    59  49  69 N18G25    29.78R
HASTINGS       CLOUDY    59  48  67 N17       29.79R
6HR MIN TEMP:  59; 6HR MAX TEMP:  67; 6HR PCP: TRACE;

HEBRON         PTCLDY    61  59  91 NW7       29.73R
HOLDREGE       CLEAR     55  44  64 N16       29.81R
KEARNEY *      PTCLDY    55  43  62 N17       29.81R
$$

NEZ011>018-030>034-042>045-261300-
NORTHEAST NEBRASKA

CITY           SKY/WX    TMP DP  RH WIND       PRES   REMARKS
NORFOLK        CLOUDY    57  45  64 NW14      29.77R
6HR MIN TEMP:  53; 6HR MAX TEMP:  59;

ALBION         CLOUDY    57  45  65 NW13G18   29.79R
BLAIR          RAIN      62  57  84 CALM      29.69R
FREMONT        CLOUDY    60  59  96 CALM      29.72R
TEKAMAH        LGT RAIN  60  57  89 NW6       29.71R
6HR MIN TEMP:  59; 6HR MAX TEMP:  64; 6HR PCP: TRACE;

WAYNE          CLOUDY    57  48  72 N13       29.75R
$$

NEZ050>053-065>068-078-088>093-261300-
SOUTHEAST NEBRASKA

CITY           SKY/WX    TMP DP  RH WIND       PRES   REMARKS
LINCOLN        CLOUDY    63  58  83 NW7       29.72R
6HR MIN TEMP:  62; 6HR MAX TEMP:  67;

OMAHA EPPLEY   CLOUDY    63  57  81 SE3       29.69R
6HR MIN TEMP:  63; 6HR MAX TEMP:  67; 6HR PCP: TRACE;

BEATRICE       PTCLDY    59  58  97 NW3       29.71R
FALLS CITY     PTCLDY    58  57  97 NW3       29.69R
6HR MIN TEMP:  57; 6HR MAX TEMP:  65; 6HR PCP:  0.01;

NEBRASKA CITY  MOCLDY    61  56  83 CALM      29.69R
PLATTSMOUTH    CLOUDY    63  58  84 CALM      29.69S
$$

NEZ044-045-051>053-067-261300-
OMAHA AREA

CITY           SKY/WX    TMP DP  RH WIND       PRES   REMARKS
OMAHA EPPLEY   CLOUDY    63  57  81 SE3       29.69R
6HR MIN TEMP:  63; 6HR MAX TEMP:  67; 6HR PCP: TRACE;

BLAIR          RAIN      62  57  84 CALM      29.69R
FREMONT        CLOUDY    60  59  96 CALM      29.72R
MILLARD        CLOUDY    64  60  88 CALM      29.68S
OFFUTT AFB     CLOUDY    61  58  91 NE3       29.68R
PLATTSMOUTH    CLOUDY    63  58  84 CALM      29.69S
WAHOO          FAIR      60  57  89 NW5       29.72R
$$




USA.gov is the U.S. government's official web portal to all federal, state and local government web resources and services.